[[{"header":{"parameterUnit":"m.s-1","parameterCategory":1,"la1":30.2991,"la2":30.254,"lo1":-89.0895,"lo2":-89.0444,"dy":0.0017,"dx":0.0017,"nx":28,"ny":28,"refTime":"2023-04-29T21:00:00:Z","depth":0,"parameterNumber":2,"parameterNumberName":"U-component_of_WINDS"},"data":[0,0,0,0,0,0,0,0,0,0,0,0,0,0,0,0,0,0,0,0,0,0,0,0,0,0,0,0,0,0,0,0,0,0,0,0,0,0,0,0,0,0,0,0,0,0,0,0,0,0,0,0,0,0,0,0,0,0,5.8173,5.8174,0,5.8256,5.8257,5.8257,5.8149,5.8145,5.8141,5.8138,5.8222,5.8228,5.8234,0,0,0,0,0,0,0,0,0,0,0,0,0,5.7923,5.7928,5.8173,5.8174,5.8175,5.8255,5.8257,5.8258,5.815,5.8145,5.814,5.8136,5.822,5.8227,5.8234,0,0,0,0,0,0,0,0,0,0,0,0,0,5.8021,5.7929,5.8173,5.8131,5.8128,5.8255,5.8257,5.8258,5.8151,5.8145,5.8139,5.8134,5.8218,5.8226,5.8235,5.8407,0,0,5.8262,5.8266,0,0,0,0,0,0,0,0,5.8016,5.803,5.8136,5.8134,5.8131,5.8186,5.8199,5.8308,5.8152,5.8142,5.8138,5.8131,5.8215,5.8223,5.8252,5.8411,5.8415,5.8263,5.8268,5.8272,5.8274,0,0,0,0,0,0,0,5.8009,5.8026,5.8205,5.8138,5.8135,5.8108,5.8116,5.8219,5.821,5.8143,5.8135,5.8146,5.8212,5.8244,5.8253,5.8416,5.8263,5.827,5.8276,5.8279,5.8724,5.873,0,0,0,0,0,0,5.8007,5.8021,5.8203,5.8208,5.8058,5.8118,5.8126,5.8174,5.8209,5.8209,5.8151,5.8141,5.8231,5.8243,5.8256,5.8461,5.8272,5.828,5.8285,5.8717,5.8725,5.8732,0,0,0,0,0,0,5.8002,5.8024,5.8199,5.8113,5.8133,5.8128,5.8183,5.8179,5.821,5.8215,5.8213,5.8185,5.8227,5.8243,5.8371,5.8463,5.8284,5.8292,5.871,5.872,5.8729,5.8874,0,0,0,0,0,0,5.7995,5.8023,5.8088,5.8115,5.8138,5.8314,5.8189,5.8185,5.8226,5.8213,5.8246,5.8246,5.8224,5.8359,5.838,5.8472,5.8299,5.8701,5.8714,5.8726,5.8861,5.8887,5.891,0,0,0,0,0,5.7987,5.8124,5.8092,5.8114,5.8219,5.8319,5.8332,5.8304,5.8234,5.8299,5.8303,5.8245,5.8449,5.8372,5.8396,5.8492,5.8696,5.8711,5.8725,5.8849,5.8882,5.8909,0,0,0,0,0,0,5.8107,5.8127,5.8091,5.8241,5.828,5.83,5.8382,5.8338,5.8397,5.8382,5.8344,5.8353,5.849,5.8503,5.8417,5.8662,5.8561,5.8581,5.8648,5.8679,5.8703,5.8697,5.8306,0,0,0,0,0,5.8152,5.8231,5.8244,5.8376,5.8397,5.8387,5.8429,5.8404,5.8442,5.8457,5.847,5.8509,5.8582,5.8631,5.8698,5.8862,5.8869,5.894,5.8964,5.8984,5.9002,5.9092,5.9125,5.878,5.878,5.878,0,0,5.8244,5.8264,5.8316,5.8401,5.8427,5.8511,5.8401,5.8493,5.8556,5.8471,5.8593,5.8605,5.8646,5.8793,5.8859,5.8809,5.9099,5.9003,5.9019,5.9026,5.9111,5.9144,5.9173,5.879,5.8789,5.8787,0,0,5.8454,5.8477,5.8591,5.862,5.8662,5.8655,5.8683,5.8712,5.8716,5.8838,5.8778,5.8851,5.8977,5.901,5.9043,5.927,5.922,5.9293,5.9421,5.951,5.9537,5.9561,5.9644,5.9673,5.931,5.9311,5.9311,0,5.8563,5.8687,5.8654,5.8753,5.8793,5.8721,5.8837,5.8867,5.8929,5.8958,5.8901,5.906,5.9082,5.9238,5.9294,5.9322,5.9354,5.9289,5.9536,5.9559,5.9581,5.966,5.9691,5.932,5.9319,5.9318,5.9317,0,5.882,5.8907,5.8994,5.9057,5.9106,5.9213,5.9197,5.9251,5.9223,5.9223,5.935,5.9374,5.9447,5.9482,5.9454,5.9634,5.9602,5.9541,5.9439,5.9623,5.9696,5.9726,5.9332,5.9329,5.9326,5.9324,0,0,5.9107,5.9153,5.9186,5.9215,5.9258,5.9325,5.9429,5.95,5.9548,5.9594,5.9682,5.9792,5.9736,5.9774,5.975,5.9828,6.0009,5.9757,5.9758,5.9804,6.0211,6.0258,6.0293,5.9976,5.9981,5.9986,6.0208,0,5.932,5.95,5.9475,5.9649,5.973,5.9665,5.9756,5.9793,5.9796,5.9866,5.9869,5.9948,5.9868,5.9891,5.9965,5.9971,6.009,5.9954,6.0058,6.0062,6.005,6.0331,6.038,6.0589,6.0237,6.0241,6.0245,0,5.9591,5.9648,5.9831,5.9863,5.9897,5.9979,6.0044,6.0111,6.0152,6.0149,6.0194,6.0156,6.0262,6.0159,6.0305,6.0213,6.0254,6.0264,6.0271,6.028,6.0165,6.0349,6.0654,6.0686,6.0289,6.0286,6.0283,0,5.9785,5.9908,6.0033,6.006,6.01,6.016,6.018,6.0215,6.0261,6.0318,6.0348,6.0416,6.0454,6.0508,6.0491,6.0417,6.0642,6.0537,6.0644,6.0644,6.0694,6.0691,6.1011,6.0719,6.0719,6.0718,6.0717,0,6.0025,6.0139,6.0121,6.0199,6.0326,6.0297,6.0424,6.0435,6.0468,6.0547,6.0495,6.057,6.0543,6.0617,6.0605,6.0729,6.0746,6.0747,6.0743,6.0753,6.0753,6.0779,6.0765,6.0726,6.0724,6.0723,6.0721,0,6.0263,6.0255,6.0388,6.0416,6.0426,6.0519,6.0544,6.0617,6.0617,6.0718,6.074,6.074,6.0825,6.0814,6.0908,6.09,6.1055,6.1032,6.1042,6.1037,6.1145,6.1136,6.1494,6.1541,6.1217,6.122,6.1223,0,6.0417,6.0504,6.0543,6.0592,6.0617,6.0697,6.0744,6.072,6.0771,6.0826,6.0894,6.0974,6.1037,6.1177,6.1186,6.1259,6.1238,6.1359,6.1248,6.1257,6.1242,6.1237,6.1247,6.1381,6.1384,6.1387,6.139,0,6.0692,6.0685,6.0754,6.0824,6.0882,6.0935,6.0983,6.1027,6.1008,6.1068,6.1155,6.1205,6.1303,6.1384,6.1453,6.1474,6.143,6.1424,6.1453,6.1465,6.1467,6.1469,6.1102,6.1416,6.1414,6.1412,6.141,6.1409,6.0894,6.0969,6.1009,6.1089,6.1123,6.117,6.1242,6.1251,6.1323,6.1401,6.1383,6.1482,6.1523,6.1612,6.164,6.1718,6.1673,6.1715,6.1726,6.1737,6.175,6.1455,6.173,6.1729,6.1728,6.1728,6.1727,0,6.1168,6.1191,6.1265,6.1335,6.1399,6.1352,6.1404,6.146,6.1549,6.1591,6.1655,6.1757,6.1836,6.1852,6.1928,6.1988,6.197,6.2009,6.2004,6.201,6.1784,6.1753,6.2022,6.2022,6.2022,6.2022,6.2022,6.2022,6.1318,6.1444,6.1442,6.1585,6.1606,6.1704,6.1738,6.1781,6.1815,6.1931,6.1997,6.2007,6.204,6.2118,6.219,6.2193,6.2224,6.2271,6.2267,6.2055,6.2026,6.1998,6.1968,6.2278,6.2278,6.2486,6.2488,6.2489]},{"header":{"parameterUnit":"m.s-1","parameterCategory":1,"la1":30.2991,"la2":30.254,"lo1":-89.0895,"lo2":-89.0444,"dy":0.0017,"dx":0.0017,"nx":28,"ny":28,"refTime":"2023-04-29T21:00:00:Z","depth":0,"parameterNumber":3,"parameterNumberName":"V-component_of_WINDS"},"data":[0,0,0,0,0,0,0,0,0,0,0,0,0,0,0,0,0,0,0,0,0,0,0,0,0,0,0,0,0,0,0,0,0,0,0,0,0,0,0,0,0,0,0,0,0,0,0,0,0,0,0,0,0,0,0,0,0,0,-3.4974,-3.4977,0,-3.519,-3.5193,-3.5195,-3.5249,-3.5248,-3.5247,-3.5245,-3.5469,-3.5476,-3.5483,0,0,0,0,0,0,0,0,0,0,0,0,0,-3.4612,-3.4619,-3.4974,-3.4977,-3.498,-3.519,-3.5193,-3.5196,-3.525,-3.5248,-3.5246,-3.5245,-3.5466,-3.5475,-3.5483,0,0,0,0,0,0,0,0,0,0,0,0,0,-3.4793,-3.4621,-3.4974,-3.5032,-3.5039,-3.5189,-3.5193,-3.5196,-3.525,-3.5248,-3.5246,-3.5244,-3.5463,-3.5474,-3.5485,-3.5593,0,0,-3.5518,-3.5522,0,0,0,0,0,0,0,0,-3.4783,-3.4806,-3.5021,-3.5028,-3.5037,-3.5191,-3.5147,-3.5329,-3.5251,-3.517,-3.5245,-3.5243,-3.5378,-3.5396,-3.5441,-3.5603,-3.5613,-3.5519,-3.5525,-3.553,-3.5533,0,0,0,0,0,0,0,-3.477,-3.4797,-3.506,-3.5024,-3.5034,-3.5048,-3.5072,-3.5182,-3.5283,-3.5177,-3.5181,-3.5206,-3.5382,-3.543,-3.5446,-3.5616,-3.5518,-3.5528,-3.5535,-3.5539,-3.588,-3.5883,0,0,0,0,0,0,-3.4747,-3.4786,-3.5053,-3.5066,-3.4902,-3.5056,-3.5083,-3.5143,-3.5282,-3.5301,-3.5208,-3.5208,-3.5413,-3.5434,-3.5454,-3.5591,-3.553,-3.554,-3.5546,-3.5878,-3.5881,-3.5883,0,0,0,0,0,0,-3.4739,-3.477,-3.5044,-3.4928,-3.4964,-3.5065,-3.5133,-3.5149,-3.5197,-3.5305,-3.5324,-3.5238,-3.5412,-3.5439,-3.5558,-3.56,-3.5545,-3.5555,-3.5875,-3.5879,-3.5882,-3.5865,0,0,0,0,0,0,-3.4728,-3.4767,-3.4808,-3.4928,-3.497,-3.5143,-3.5135,-3.5154,-3.5215,-3.5218,-3.5339,-3.5357,-3.5412,-3.5542,-3.5569,-3.5614,-3.5563,-3.5871,-3.5876,-3.5881,-3.5862,-3.5868,-3.5873,0,0,0,0,0,-3.4715,-3.4795,-3.481,-3.4842,-3.5023,-3.5146,-3.5169,-3.5231,-3.5218,-3.5261,-3.5331,-3.5353,-3.5591,-3.5553,-3.5585,-3.5633,-3.5869,-3.5875,-3.588,-3.586,-3.5867,-3.5872,0,0,0,0,0,0,-3.4678,-3.4812,-3.483,-3.4951,-3.5036,-3.5154,-3.521,-3.5236,-3.5328,-3.5326,-3.5399,-3.5426,-3.5541,-3.5599,-3.5555,-3.5746,-3.573,-3.5742,-3.5704,-3.5711,-3.5716,-3.57,-3.5572,0,0,0,0,0,-3.4684,-3.4771,-3.4884,-3.4979,-3.5021,-3.5108,-3.5164,-3.5204,-3.5296,-3.5333,-3.5411,-3.55,-3.5596,-3.5657,-3.575,-3.5871,-3.5899,-3.592,-3.5925,-3.5929,-3.5939,-3.6009,-3.602,-3.5902,-3.5902,-3.5902,0,0,-3.4697,-3.4781,-3.4831,-3.4974,-3.5045,-3.5135,-3.5138,-3.5233,-3.5301,-3.5348,-3.5465,-3.5525,-3.563,-3.5751,-3.5808,-3.5803,-3.5977,-3.5936,-3.5938,-3.5946,-3.6016,-3.6027,-3.6037,-3.5906,-3.5906,-3.5905,0,0,-3.4766,-3.4838,-3.4926,-3.4997,-3.5105,-3.5162,-3.5183,-3.5298,-3.534,-3.5459,-3.5496,-3.5579,-3.574,-3.5814,-3.5872,-3.5971,-3.5995,-3.5999,-3.6026,-3.6094,-3.6103,-3.6111,-3.6148,-3.616,-3.6009,-3.6009,-3.6009,0,-3.4769,-3.4905,-3.4968,-3.5062,-3.5124,-3.517,-3.5261,-3.5327,-3.546,-3.5502,-3.5494,-3.5699,-3.5773,-3.5912,-3.5936,-3.5982,-3.601,-3.5986,-3.6096,-3.6105,-3.6114,-3.615,-3.6163,-3.6009,-3.6009,-3.6009,-3.6009,0,-3.4903,-3.4997,-3.5056,-3.5182,-3.5251,-3.5343,-3.5421,-3.5484,-3.5518,-3.5577,-3.5698,-3.5788,-3.5901,-3.5937,-3.5972,-3.6083,-3.6076,-3.6081,-3.6067,-3.6124,-3.6159,-3.6173,-3.6009,-3.6009,-3.6009,-3.6009,0,0,-3.4955,-3.5116,-3.5137,-3.5195,-3.5318,-3.5392,-3.5486,-3.5596,-3.5649,-3.5739,-3.5821,-3.5958,-3.5964,-3.603,-3.6074,-3.6133,-3.6207,-3.6131,-3.6135,-3.6143,-3.6335,-3.6331,-3.6346,-3.6223,-3.6226,-3.6228,-3.6327,0,-3.504,-3.5209,-3.527,-3.5409,-3.5498,-3.5543,-3.5626,-3.571,-3.5768,-3.5853,-3.5917,-3.6013,-3.6013,-3.6053,-3.6114,-3.6184,-3.6246,-3.6178,-3.6301,-3.6305,-3.6274,-3.6364,-3.6359,-3.6448,-3.6341,-3.6343,-3.6345,0,-3.5162,-3.5254,-3.5402,-3.5514,-3.5554,-3.5627,-3.5733,-3.5813,-3.5911,-3.5949,-3.6023,-3.6063,-3.6165,-3.6144,-3.6286,-3.6238,-3.6292,-3.6335,-3.634,-3.6354,-3.6328,-3.6381,-3.6478,-3.6491,-3.6367,-3.6365,-3.6363,0,-3.5186,-3.5347,-3.5456,-3.5505,-3.5639,-3.5689,-3.5747,-3.5843,-3.5906,-3.5999,-3.6041,-3.6145,-3.6202,-3.6283,-3.635,-3.6328,-3.6487,-3.6471,-3.6523,-3.6521,-3.6554,-3.6551,-3.6661,-3.6588,-3.6587,-3.6587,-3.6587,0,-3.5276,-3.5365,-3.5469,-3.5536,-3.5638,-3.5708,-3.5807,-3.5868,-3.5953,-3.6034,-3.608,-3.6156,-3.624,-3.6327,-3.6381,-3.6491,-3.6517,-3.6551,-3.6565,-3.6548,-3.6543,-3.6584,-3.658,-3.6591,-3.659,-3.6589,-3.6589,0,-3.532,-3.5393,-3.5516,-3.5632,-3.5664,-3.5734,-3.5835,-3.5903,-3.5962,-3.6065,-3.6093,-3.6188,-3.6293,-3.6368,-3.6503,-3.6539,-3.6658,-3.6671,-3.6625,-3.6632,-3.6679,-3.6674,-3.682,-3.6844,-3.6753,-3.6754,-3.6754,0,-3.5372,-3.5442,-3.5566,-3.5623,-3.5681,-3.5773,-3.5837,-3.5909,-3.5974,-3.6091,-3.6146,-3.6254,-3.6344,-3.651,-3.6591,-3.6695,-3.6711,-3.6756,-3.6727,-3.6709,-3.6714,-3.6709,-3.6717,-3.676,-3.676,-3.6761,-3.6761,0,-3.5458,-3.5491,-3.5581,-3.5685,-3.576,-3.5845,-3.5931,-3.5975,-3.6062,-3.6134,-3.6241,-3.6311,-3.6449,-3.6557,-3.6669,-3.6731,-3.6761,-3.6769,-3.6787,-3.6771,-3.6742,-3.6759,-3.6637,-3.6766,-3.6765,-3.6765,-3.6765,-3.6765,-3.5509,-3.5573,-3.5671,-3.577,-3.5842,-3.5922,-3.5992,-3.606,-3.6151,-3.6269,-3.6306,-3.6417,-3.6515,-3.6669,-3.6732,-3.6822,-3.682,-3.6845,-3.6852,-3.6857,-3.6857,-3.6727,-3.6842,-3.6842,-3.6842,-3.6842,-3.6842,0,-3.5598,-3.5663,-3.5754,-3.5872,-3.5951,-3.5972,-3.6068,-3.6133,-3.623,-3.6318,-3.6406,-3.6531,-3.6635,-3.6725,-3.6834,-3.6888,-3.6905,-3.6914,-3.6911,-3.6926,-3.6852,-3.6826,-3.6899,-3.6899,-3.6899,-3.6899,-3.6899,-3.6899,-3.5654,-3.5764,-3.5809,-3.5956,-3.6021,-3.613,-3.6184,-3.6258,-3.6328,-3.6465,-3.6552,-3.6609,-3.6699,-3.6815,-3.6912,-3.6936,-3.6974,-3.698,-3.7008,-3.6937,-3.693,-3.6924,-3.69,-3.6988,-3.6988,-3.7074,-3.7075,-3.7076]}]]